This is the latest recevied weather packets stored in our database for station/object W4FXD. If no packets are shown the sender has not sent any weather packets the latest 10 day(s).
| Time | Temp. | Humidity | Pressure | Rain* | Wind** | Luminosity | Snow |
|---|---|---|---|---|---|---|---|
| 1778114993 | 17.78° C | 99% | 1012.6 hPa | 0 mm | - | 0 W/m² | - |
| 1778114690 | 17.78° C | 99% | 1012.6 hPa | 0 mm | - | 0 W/m² | - |
| 1778114388 | 18.33° C | 99% | 1013.4 hPa | 0 mm | - | 0 W/m² | - |
| 1778114083 | 18.33° C | 99% | 1013.3 hPa | 0 mm | - | 0 W/m² | - |
| 1778113778 | 18.33° C | 99% | 1013.7 hPa | 0 mm | - | 0 W/m² | - |
| 1778113475 | 18.33° C | 99% | 1013.5 hPa | 0 mm | - | 0 W/m² | - |
| 1778113172 | 18.33° C | 99% | 1013.1 hPa | 0 mm | - | 0 W/m² | - |
| 1778112868 | 18.33° C | 99% | 1012.8 hPa | 0 mm | - | 0 W/m² | - |
| 1778112566 | 18.33° C | 99% | 1012.7 hPa | 0 mm | - | 0 W/m² | - |
| 1778112261 | 18.33° C | 99% | 1012.6 hPa | 1.78 mm | - | 0 W/m² | - |
| 1778111957 | 18.33° C | 99% | 1012.2 hPa | 3.05 mm | - | 0 W/m² | - |
| 1778111655 | 18.33° C | 99% | 1012.3 hPa | 3.05 mm | - | 1 W/m² | - |
| 1778111350 | 18.89° C | 99% | 1012.3 hPa | 4.32 mm | - | 1 W/m² | - |
| 1778111048 | 18.89° C | 99% | 1012.4 hPa | 7.11 mm | - | 2 W/m² | - |
| 1778110746 | 18.89° C | 99% | 1012.1 hPa | 12.7 mm | - | 6 W/m² | - |
| 1778110441 | 18.89° C | 99% | 1012.1 hPa | 8.89 mm | - | 4 W/m² | - |
| 1778110138 | 18.89° C | 99% | 1011.9 hPa | 3.05 mm | - | 2 W/m² | - |
| 1778109834 | 18.89° C | 99% | 1012.1 hPa | 3.05 mm | - | 0 W/m² | - |
| 1778109530 | 18.89° C | 99% | 1011.7 hPa | 1.27 mm | - | 5 W/m² | - |
| 1778109228 | 18.89° C | 99% | 1011.7 hPa | 1.78 mm | - | 16 W/m² | - |
| 1778108926 | 18.89° C | 99% | 1012.1 hPa | 0 mm | - | 20 W/m² | - |
| 1778108622 | 18.89° C | 99% | 1012.1 hPa | 0 mm | - | 8 W/m² | - |
| 1778108318 | 18.89° C | 99% | 1011.6 hPa | 1.27 mm | - | 10 W/m² | - |
| 1778108016 | 18.89° C | 99% | 1011.9 hPa | 1.27 mm | - | 17 W/m² | - |
| 1778107713 | 18.89° C | 99% | 1011.4 hPa | 1.78 mm | - | 17 W/m² | - |
* Rain latest hour (hover to see other rain measurements)
** Current wind speed in m/s (hover to see current wind gust speed)